Tracking 32418 objects as of 9-Dec-2025
HD Live streaming from Space Station
objects crossing your sky now

FENGYUN 1C DEB

Track FENGYUN 1C DEB now!
10-day predictions


NORAD ID: 31923
Int'l Code: 1999-025CMA
Perigee: 838.7 km
Apogee: 1,284.4 km
Inclination: 98.4 °
Period: 106.3 minutes
Semi major axis: 7432 km
RCS: 0.0082 m2 (small)
Launch date: May 10, 1999
Source: People's Republic of China (PRC)
Launch site: Taiyaun Space Center, China (TSC)

Note: This is SATELLITE DEBRIS
Your satellite tracking list
Your tracking list is empty




NASA's NSSDC Master Catalog

Two Line Element Set (TLE):
1 31923U 99025CMA 25341.23995699  .00001755  00000-0  19569-2 0  9990
2 31923  98.4390  75.7726 0299831 318.1759  39.6815 13.54870138635605
Source of the keplerian elements: AFSPC